Regional Weather Roundup
Issued by NWS

Home | Current Version | Previous Version | Text Only | Print | Product List | Glossary Off
Versions: 1 2 3 4 5 6 7 8 9 10 11 12 13 14 15 16 17 18 19 20 21 22 23 24 25 26 27 28 29 30 31 32 33 34 35 36 37 38 39 40 41 42 43 44 45 46 47 48 49 50

000
ASUS43 KMKX 231000
RWRWI

WISCONSIN REGIONAL WEATHER ROUNDUP
NATIONAL WEATHER SERVICE MILWAUKEE/SULLIVAN WI
500 AM CDT THU MAR 23 2017

NOTE: "FAIR" INDICATES FEW OR NO CLOUDS BELOW 12,000 FEET WITH NO
SIGNIFICANT WEATHER AND/OR OBSTRUCTIONS TO VISIBILITY.

WIZ001-002-006>008-014>016-023>028-231100-
NORTHWEST WISCONSIN

CITY           SKY/WX    TMP DP  RH WIND       PRES   REMARKS
SUPERIOR ARPT  LGT SNOW  31  25  76 SW10G20   30.26S WCI  23
ASHLAND        CLOUDY    31  21  66 SE3       30.27F
HAYWARD        LGT SNOW  31  25  78 SE7       30.27S WCI  24
SIREN          CLOUDY    29  27  92 SE7       30.23F WCI  22
CUMBERLAND     CLOUDY    28  25  86 SE9       30.25F WCI  20
RICE LAKE      CLOUDY    29  27  91 E5        30.28F WCI  24
CHETEK         LGT SNOW  28  27  93 SE6       30.28F WCI  22
LADYSMITH      CLOUDY    32  20  62 SE7       30.30F WCI  26
EAU CLAIRE     NOT AVBL
MENOMONIE      CLOUDY    33  21  60 E9        30.26F WCI  26
NEW RICHMOND   CLOUDY    34  18  51 SE9       30.22F WCI  26
OSCEOLA        CLOUDY    35  19  52 SE9       30.24F WCI  28
$$

WIZ003>005-009-010-017-018-231100-
NORTH CENTRAL WISCONSIN

CITY           SKY/WX    TMP DP  RH WIND       PRES   REMARKS
MANITOWISH WTR CLOUDY    27  17  65 S8        30.28F WCI  19
ARBOR VITAE    CLOUDY    29  19  66 S7        30.28F WCI  22
WOODRUFF       CLOUDY    29  19  66 S7        30.28F WCI  22
RHINELANDER    CLOUDY    28  19  69 S7        30.31F WCI  21
EAGLE RIVER    CLOUDY    25  17  69 S8        30.30F WCI  17
LAND O LAKES   CLOUDY    27  16  65 S5        30.31F WCI  21
PHILLIPS       CLOUDY    28  20  72 S8        30.28F WCI  20
TOMAHAWK       CLOUDY    27  19  72 CALM      30.31F
MEDFORD        CLOUDY    27  20  75 SE12      30.30F WCI  17
MERRILL        CLOUDY    27  20  73 S5        30.35F WCI  22
$$

WIZ029-030-035-036-043>047-231100-
CENTRAL WISCONSIN

CITY           SKY/WX    TMP DP  RH WIND       PRES   REMARKS
WAUSAU         CLOUDY    26  19  74 S10       30.34F WCI  16
MOSINEE        CLOUDY    27  21  80 SE7       30.37R WCI  19
MARSHFIELD     CLOUDY    28  19  69 SE10      30.32F WCI  19
STEVENS POINT  CLOUDY    25  17  73 S3        30.38S
WAUPACA        CLOUDY    28  20  72 SE7       30.40F WCI  21
WAUTOMA        CLOUDY    27  20  75 SE6       30.40S WCI  20
WISC RAPIDS    CLOUDY    28  20  71 SE7       30.37F WCI  21
CAMP DOUGLAS   NOT AVBL
$$

WIZ011>013-019>022-031-037>040-048>050-231100-
NORTHEAST WISCONSIN

CITY           SKY/WX    TMP DP  RH WIND       PRES   REMARKS
ANTIGO         CLOUDY    24  19  79 S8        30.35S WCI  15
SHAWANO        CLOUDY    28  21  76 CALM      30.41F
OCONTO         CLOUDY    27  20  77 S3        30.42F
STURGEON BAY   CLOUDY    27  22  81 S3        30.43F
GREEN BAY      CLOUDY    28  23  81 S5        30.42F WCI  23
MANITOWOC      NOT AVBL
APPLETON       CLOUDY    28  19  69 S6        30.38F WCI  22
CLINTONVILLE   CLOUDY    28  21  74 S6        30.40S WCI  22
OSHKOSH        CLOUDY    27  21  78 SE5       30.40S WCI  22
$$

WIZ032>034-041-042-053>061-231100-
SOUTHWEST WISCONSIN

CITY           SKY/WX    TMP DP  RH WIND       PRES   REMARKS
LA CROSSE      LGT RAIN  37  22  54 SE12      30.30F WCI  29
SPARTA         CLOUDY    33  20  59 SE9       30.33F WCI  26
VIROQUA        CLOUDY    31  20  62 SE13      30.29F WCI  22
BOSCOBEL       MOCLDY    33  19  56 VRB5      30.34F WCI  29
PRAIRIE DU CHI CLOUDY    35  19  52 SE8       30.32F WCI  29
PLATTEVILLE    CLOUDY    32  22  68 SE9       30.34F WCI  24
$$

WIZ056-057-062-063-064-067-068-231100-
SOUTH CENTRAL WISCONSIN

CITY           SKY/WX    TMP DP  RH WIND       PRES   REMARKS
REEDSBURG      CLOUDY    30  19  63 CALM      30.36S
BARABOO/DELLS  CLOUDY    29  20  67 SE8       30.36F WCI  21
LONE ROCK      NOT AVBL
MINERAL POINT  CLOUDY    32  21  64 SE10G18   30.33F WCI  24
MADISON        CLOUDY    29  20  69 SE10      30.37F WCI  20
MIDDLETON      CLOUDY    31  22  67 SE8       30.38F WCI  24
WATERTOWN      CLOUDY    28  23  82 SE3       30.39F
MONROE         CLOUDY    30  21  69 SE7       30.36F WCI  23
JANESVILLE     CLOUDY    32  23  69 SE6       30.39S WCI  26
$$

WIZ051-052-058>065-066-070>072-231100-
SOUTHEAST WISCONSIN

CITY           SKY/WX    TMP DP  RH WIND       PRES   REMARKS
MILWAUKEE      MOCLDY    33  24  69 SE7       30.41F WCI  27
WAUKESHA       CLOUDY    27  23  86 SE5       30.41F WCI  21
MILWAUKEE/TIMM MOCLDY    25  19  80 CALM      30.41F
RACINE         CLOUDY    34  22  61 S12       30.43F WCI  25
KENOSHA        CLOUDY    31  23  72 SE8       30.41F WCI  23
FOND DU LAC    CLOUDY    29  21  72 S9        30.40F WCI  20
SHEBOYGAN      CLOUDY    25  21  85 E3        30.41F
WEST BEND      CLOUDY    23  23 100 CALM      30.40F
JUNEAU         CLOUDY    28  22  79 SE7       30.40F WCI  20
$$

LSZ147-162-231100-
LAKE SUPERIOR

STATION/POSITION TIME  TEMP    WIND        PRES    WAVE
                       AIR SEA DIR/SP/G            HT/PER
                 (UTC) (F)     (DEG/KT/KT) (MB)    (FT/S)
DEVILS ISLAND    0900   33     190/  8/ 12 1027.0R
PORT WING        0940   32     160/  6/  7 1024.7F
SAXON HARBOR     0940   32     190/  5/ 11 1025.7S
$$

LMZ867-665-643>646-231100-
LAKE MICHIGAN

STATION/POSITION TIME  TEMP    WIND        PRES    WAVE
                       AIR SEA DIR/SP/G            HT/PER
                 (UTC) (F)     (DEG/KT/KT) (MB)    (FT/S)
CHAMBERS ISLAND  0940   27     180/  3/  5 1029.8F
NORTHPORT PIER   0940   29      CALM  /  5 1030.5S
SISTER BAY       0850   27     170/  7/  8   N/A
KEWAUNEE LAKESHO 0930   32     180/ 14/ 16 1029.8F
SHEBOYGAN LAKESH 0900   32     160/ 14/ 16 1031.0F
PORT WASHINGTON  0940   34     150/ 13/ 15 1030.8F
MILWAUKEE LAKESH 0930   35     150/ 14/ 17   N/A
KENOSHA   LAKESH 0900   35     160/ 18/ 20 1030.1
$$

TC  - TEMPERATURE IN CELSIUS
VSB - VISIBILITY IN STATUTE MILES
WCI - WIND CHILL INDEX
HX  - HEAT INDEX




USA.gov is the U.S. government's official web portal to all federal, state and local government web resources and services.